sat.trackr.live / text

‹ back to catalog

STARLINK-4520

NORAD 53400 · 2022-097N

PAYLOAD ACTIVE UNKNOWN

§ Identity

Operator
Country
US
Launch date
2022-08-10
Launch site
AFETR
Launch vehicle
Mass (kg)
RCS (m²)

Purposes: comms

External: N2YO · Heavens-Above · Gunter

§ Orbital elements

Epoch: 2026-09-20T04:46:54.196896Z

Period
93.78 min
Inclination
53.1601°
Eccentricity
0.0001211
Mean motion
15.35427274 rev/d
Perigee alt
458.8 km
Apogee alt
460.5 km
Semi-major
6,837.8 km
B*
-1.6613e-4
RAAN
323.0999°
Arg perigee
100.3594°
Mean anomaly
259.7546°
Rev number
22,798

§ Raw data

STARLINK-45201 53400U 22097N   26263.19923839 -.00006176  00000+0 -16613-3 0  99962 53400  53.1601 323.0999 0001211 100.3594 259.7546 15.35427274227988

JSON: /api/v1/satellites/53400 · /tle

For live sub-satellite position, see the globe view (requires WebGL).

§ Visibility from observer

Set your observer location to see the next 7 days of passes ≥ 10°. The values pass through the URL so the page stays shareable.

No JS? Fill the form by hand. The geolocation button needs JavaScript.